Regional Weather Roundup
Issued by NWS

Home | Current Version | Previous Version | Text Only | Print | Product List | Glossary Off
Versions: 1 2 3 4 5 6 7 8 9 10 11 12 13 14 15 16 17 18 19 20 21 22 23 24 25 26 27 28 29 30 31 32 33 34 35 36 37 38 39 40 41 42 43 44 45 46 47 48 49 50

000
ASUS45 KTFX 120404
RWRMT
MONTANA HOURLY WEATHER ROUNDUP
NATIONAL WEATHER SERVICE GREAT FALLS MT
1004 PM MDT FRI JUL 11 2014

NOTE: "FAIR" INDICATES FEW OR NO CLOUDS BELOW 12000 FEET WITH NO
SIGNIFICANT WEATHER AND/OR OBSTRUCTIONS TO VISIBILITY.

* THESE STATIONS ARE NOT UNDER NWS QUALITY CONTROL. THEY DO NOT
   REPORT WEATHER SUCH AS PRECIPITATION OR FOG.

MTZ001>007-043-120500-
WEST OF THE DIVIDE
CITY           SKY/WX    TMP DP  RH WIND       PRES   REMARKS
KALISPELL      CLEAR     66  57  73 CALM      30.06R
MISSOULA       PTCLDY    79  36  21 NW6       30.06R
BUTTE          TSTM      72  50  46 N18G28    30.19R
MULLAN PASS    PTCLDY    64  37  37 N7        30.24R
* ESSEX        N/A       67  48  51 W1G8       N/A
* LINCOLN      N/A       69  48  47 NE7G20     N/A
* LOOKOUT PASS N/A       67  47  49 N2         N/A
* POLSON       N/A       67  43  42 N/A        N/A
* RONAN APT    PTCLDY    72  52  49 N/A        N/A
* SEELEY LAKE  N/A       72  45  38 S1G7       N/A
* THOMP F APT  PTCLDY    63  48  58 N2G22      N/A
* YAAK HILL    N/A       73  54  51 N/A        N/A
$$

MTZ008-052>055-120500-
SOUTHWEST MONTANA
CITY           SKY/WX    TMP DP  RH WIND       PRES   REMARKS
BOZEMAN        PTCLDY    72  52  49 CALM      30.12R
DILLON         MOCLDY    72  52  49 NE12      30.11R
W YELLOWSTONE  MOCLDY    63  48  58 SE6       30.28R
* THREE FORKS  PTCLDY    73  64  74 N/A        N/A
* BOULDER HILL N/A       66  45  47 VRB11      N/A
* MONIDA PASS  N/A       62  49  63 E8         N/A
* RAYNOLDS PAS N/A       56  38  51 SE3        N/A
* WHITEHALL    N/A       77  49  37 NE10G16    N/A
* WISE RIVER   N/A       72  48  43 SE7G16     N/A
$$

MTZ009>010-012-014-046-048-049-054-120500-
EAST SLOPES AND CENTRAL MONTANA
CITY           SKY/WX    TMP DP  RH WIND       PRES   REMARKS
CUT BANK       CLEAR     66  48  52 SE5       30.17R
GREAT FALLS    PTCLDY    66  52  61 NE6       30.14R
HELENA         CLEAR     73  52  48 W10       30.12R
MALMSTROM AFB  PTCLDY    66  54  65 E5        30.16R
* CONRAD       PTCLDY    66  59  78 N/A        N/A
* DEARBORN     N/A       72  54  53 VRB6       N/A
* EAST GLACIER N/A       59  52  78 E4         N/A
* MONARCH      N/A       58  46  65 E6         N/A
* PENDROY      N/A       64  52  65 SE4        N/A
* ROGERS PASS  N/A       57  48  72 NW2        N/A
* SAINT MARY   N/A       66  49  54 NE2G12     N/A
* SWEET GRASS  N/A       63  57  81 E8         N/A
$$

MTZ011-013-016-021-035-040-045-047-050-051-120500-
NORTH CENTRAL MONTANA
CITY           SKY/WX    TMP DP  RH WIND       PRES   REMARKS
HAVRE          CLEAR     66  57  73 SE5       30.12R
LEWISTOWN      MOCLDY    70  52  53 E9        30.18R
* CHESTER      N/A       69  50  51 SE4G9      N/A
* DENTON       N/A       71  51  49 NE7        N/A
* GEYSER       N/A       66  50  56 NE8        N/A
* JUDITH GAP   N/A       67  50  55 N/A        N/A
* LOMA         N/A       66  54  65 NE9        N/A
$$

MTZ017>020-022>027-061-062-120500-
NORTHEAST MONTANA
CITY           SKY/WX    TMP DP  RH WIND       PRES   REMARKS
GLASGOW        CLEAR     66  55  68 NE9       30.13R
GLENDIVE       CLOUDY    72  52  49 NE7       30.14R
JORDAN         PTCLDY    70  52  53 NE8       30.13R
SIDNEY         CLOUDY    70  52  53 N3        30.14S
WOLF POINT     FAIR      64  54  70 N7        30.13R
* BEAVER HILL  N/A       67  51  57 NE7        N/A
* CIRCLE       N/A       70  54  57 VRB1G7     N/A
* LINDSAY DVD  N/A       64  54  70 N8         N/A
* NAVAJO       N/A       61  52  72 NW6        N/A
$$

MTZ028>042-056>058-120500-
SOUTHCENTRAL AND SOUTHEAST MONTANA
CITY           SKY/WX    TMP DP  RH WIND       PRES   REMARKS
BAKER          MOCLDY    70  55  59 E9        30.14R
BILLINGS       MOCLDY    72  54  53 NE13      30.13R
LIVINGSTON     PTCLDY    72  54  53 E12       30.15R
MILES CITY     PTCLDY    72  55  55 NE12      30.11R
* LAUREL APT   PTCLDY    72  52  49 N9         N/A
* ROUNDUP APT  MOCLDY    72  48  43 NE7        N/A
* ALZADA       N/A       72  61  68 S2         N/A
* HYSHAM       N/A       71  49  46 E12G19     N/A
* REED POINT   N/A       68  56  66 E2         N/A
* ROSCOE HILL  N/A       63  53  70 SW4        N/A
$$

REGIONAL REPORTS...DAKOTAS
CITY           SKY/WX    TMP DP  RH WIND       PRES   REMARKS
WILLISTON      PTCLDY    63  52  68 N5        30.12R
DICKINSON      MOCLDY    63  57  81 E7        30.12R
CROSBY         N/A       57  57 100 W5        30.13R
WATFORD CITY   CLEAR     59  55  87 E3        30.11R
BISMARCK       MOCLDY    72  57  59 N7        30.10R
GRAND FORKS    CLEAR     64  55  73 NW3       30.01R
FARGO          PTCLDY    70  57  64 N8        30.01R
BUFFALO SD     CLOUDY    66  57  73 E9        30.08R
RAPID CITY     CLOUDY    66  59  78 S12       30.12F
$$

REGIONAL REPORTS...WYOMING/IDAHO/WASHINGTON
CITY           SKY/WX    TMP DP  RH WIND       PRES   REMARKS
GILLETTE       CLOUDY    66  57  73 S20G31    30.15F
SHERIDAN       LGT RAIN  66  61  84 VRB3      30.12S
CODY           CLOUDY    70  50  49 SW12G30   30.19S
YELLOWSTONE LA CLOUDY    54  48  80 CALM      30.41R
SALMON         CLOUDY    81  45  28 CALM      30.00R
MULLAN PASS    PTCLDY    64  37  37 N7        30.24S
SAND POINT     CLEAR     66  55  68 CALM      30.00R
SPOKANE        PTCLDY    86  37  17 E7        30.00R
$$

REGIONAL REPORTS...SASKATCHEWAN
CITY           SKY/WX    TMP DP  RH WIND       PRES   REMARKS
SWIFT CURRENT  HAZE      59  48  67 SW5       30.15R

$$




USA.gov is the U.S. government's official web portal to all federal, state and local government web resources and services.